| time (UTC) | temp C | wind direction | speed KPH | gust KPH | rain 1hr cm | rain 24hr cm | rain mn cm | humidity % | barometer mb |
| 20260504100426 | 15 | 0 | 0.0 | 0.0 | 0.00 | 0.00 | 0.00 | 83 | 1014.1 |
| 20260504081926 | 16 | 0 | 0.0 | 0.0 | 0.00 | 0.00 | 0.00 | 77 | 1014.4 |
| 20260504081427 | 16 | 0 | 0.0 | 0.0 | 0.00 | 0.00 | 0.00 | 76 | 1014.4 |
| 20260504080927 | 16 | 0 | 0.0 | 0.0 | 0.00 | 0.00 | 0.00 | 76 | 1014.5 |
| 20260504080427 | 17 | 0 | 0.0 | 0.0 | 0.00 | 0.00 | 0.00 | 75 | 1014.5 |
| 20260504050427 | 18 | 0 | 0.0 | 0.0 | 0.00 | 0.00 | 0.00 | 65 | 1016.0 |
| 20260504045928 | 18 | 0 | 0.0 | 0.0 | 0.00 | 0.00 | 0.00 | 65 | 1016.0 |
| 20260504045427 | 18 | 0 | 0.0 | 0.0 | 0.00 | 0.00 | 0.00 | 65 | 1016.1 |
| 20260504044427 | 18 | 0 | 0.0 | 0.0 | 0.00 | 0.00 | 0.00 | 64 | 1016.2 |
| 20260504043927 | 18 | 0 | 0.0 | 0.0 | 0.00 | 0.00 | 0.00 | 64 | 1016.2 |
| 20260504043428 | 18 | 0 | 0.0 | 0.0 | 0.00 | 0.00 | 0.00 | 63 | 1016.2 |
| 20260504042927 | 18 | 0 | 0.0 | 0.0 | 0.00 | 0.00 | 0.00 | 63 | 1016.2 |
| 20260504042428 | 18 | 0 | 0.0 | 0.0 | 0.00 | 0.00 | 0.00 | 62 | 1016.2 |
| 20260504041427 | 19 | 0 | 0.0 | 0.0 | 0.00 | 0.00 | 0.00 | 62 | 1016.4 |
| 20260504040927 | 19 | 0 | 0.0 | 0.0 | 0.00 | 0.00 | 0.00 | 61 | 1016.4 |
| 20260504040427 | 19 | 0 | 0.0 | 0.0 | 0.00 | 0.00 | 0.00 | 61 | 1016.3 |
| 20260504035927 | 19 | 0 | 0.0 | 0.0 | 0.00 | 0.00 | 0.00 | 61 | 1016.4 |
| 20260504035427 | 19 | 0 | 0.0 | 0.0 | 0.00 | 0.00 | 0.00 | 61 | 1016.4 |
| 20260504034927 | 19 | 0 | 0.0 | 0.0 | 0.00 | 0.00 | 0.00 | 60 | 1016.5 |
| 20260504034427 | 20 | 0 | 0.0 | 0.0 | 0.00 | 0.00 | 0.00 | 60 | 1016.5 |
| 20260504033927 | 20 | 0 | 0.0 | 0.0 | 0.00 | 0.00 | 0.00 | 60 | 1016.4 |
| 20260504033427 | 20 | 0 | 0.0 | 0.0 | 0.00 | 0.00 | 0.00 | 60 | 1016.4 |
| 20260504032927 | 20 | 0 | 0.0 | 0.0 | 0.00 | 0.00 | 0.00 | 60 | 1016.4 |
| 20260504032426 | 20 | 0 | 0.0 | 0.0 | 0.00 | 0.00 | 0.00 | 60 | 1016.4 |
| 20260504031927 | 20 | 0 | 0.0 | 0.0 | 0.00 | 0.00 | 0.00 | 60 | 1016.2 |
| 20260504031427 | 20 | 0 | 0.0 | 0.0 | 0.00 | 0.00 | 0.00 | 60 | 1016.2 |
| 20260504030927 | 20 | 0 | 0.0 | 0.0 | 0.00 | 0.00 | 0.00 | 59 | 1016.3 |
| 20260504030428 | 20 | 0 | 0.0 | 0.0 | 0.00 | 0.00 | 0.00 | 60 | 1016.1 |
| 20260504025929 | 20 | 0 | 0.0 | 0.0 | 0.00 | 0.00 | 0.00 | 60 | 1016.1 |
| 20260504024927 | 20 | 0 | 0.0 | 0.0 | 0.00 | 0.00 | 0.00 | 59 | 1016.2 |
| 20260504024427 | 20 | 0 | 0.0 | 0.0 | 0.00 | 0.00 | 0.00 | 59 | 1016.3 |
| 20260504023927 | 20 | 0 | 0.0 | 0.0 | 0.00 | 0.00 | 0.00 | 59 | 1016.3 |
| 20260504023427 | 20 | 0 | 0.0 | 0.0 | 0.00 | 0.00 | 0.00 | 59 | 1016.2 |
| 20260504022928 | 20 | 0 | 0.0 | 0.0 | 0.00 | 0.00 | 0.00 | 59 | 1016.2 |
| 20260504022427 | 20 | 0 | 0.0 | 0.0 | 0.00 | 0.00 | 0.00 | 59 | 1016.2 |
| 20260504021927 | 20 | 0 | 0.0 | 0.0 | 0.00 | 0.00 | 0.00 | 59 | 1016.2 |
| 20260504021427 | 20 | 0 | 0.0 | 0.0 | 0.00 | 0.00 | 0.00 | 58 | 1016.1 |
| 20260504020928 | 20 | 0 | 0.0 | 0.0 | 0.00 | 0.00 | 0.00 | 58 | 1016.1 |
| 20260504020428 | 20 | 0 | 0.0 | 0.0 | 0.00 | 0.00 | 0.00 | 58 | 1016.1 |
| 20260504015928 | 20 | 0 | 0.0 | 0.0 | 0.00 | 0.00 | 0.00 | 57 | 1016.0 |
| 20260504014928 | 21 | 0 | 0.0 | 0.0 | 0.00 | 0.00 | 0.00 | 56 | 1015.9 |
| 20260504013928 | 21 | 0 | 0.0 | 0.0 | 0.00 | 0.00 | 0.00 | 54 | 1015.8 |
| 20260504013428 | 21 | 0 | 0.0 | 0.0 | 0.00 | 0.00 | 0.00 | 53 | 1015.8 |
| 20260504012927 | 21 | 0 | 0.0 | 0.0 | 0.00 | 0.00 | 0.00 | 52 | 1015.8 |
| 20260504012427 | 21 | 0 | 0.0 | 0.0 | 0.00 | 0.00 | 0.00 | 51 | 1015.9 |
| 20260504011428 | 22 | 0 | 0.0 | 0.0 | 0.00 | 0.00 | 0.00 | 50 | 1015.9 |
| 20260504010427 | 22 | 0 | 0.0 | 0.0 | 0.00 | 0.00 | 0.00 | 48 | 1015.9 |
| 20260504005927 | 22 | 0 | 0.0 | 0.0 | 0.00 | 0.00 | 0.00 | 47 | 1015.9 |
| 20260504005427 | 22 | 0 | 0.0 | 0.0 | 0.00 | 0.00 | 0.00 | 46 | 1015.8 |
| 20260504004927 | 22 | 0 | 0.0 | 0.0 | 0.00 | 0.00 | 0.00 | 45 | 1015.8 |
| 20260504004429 | 23 | 0 | 0.0 | 0.0 | 0.00 | 0.00 | 0.00 | 44 | 1015.8 |
| 20260504003427 | 23 | 0 | 0.0 | 0.0 | 0.00 | 0.00 | 0.00 | 42 | 1016.0 |
| 20260504002929 | 23 | 0 | 0.0 | 0.0 | 0.00 | 0.00 | 0.00 | 41 | 1016.1 |
| 20260504002428 | 24 | 0 | 0.0 | 0.0 | 0.00 | 0.00 | 0.00 | 41 | 1016.0 |
| 20260504001927 | 24 | 0 | 0.0 | 0.0 | 0.00 | 0.00 | 0.00 | 40 | 1015.9 |
| 20260504001427 | 24 | 0 | 0.0 | 0.0 | 0.00 | 0.00 | 0.00 | 40 | 1016.0 |
| 20260504000927 | 24 | 0 | 0.0 | 0.0 | 0.00 | 0.00 | 0.00 | 40 | 1016.0 |
| 20260504000431 | 25 | 0 | 0.0 | 0.0 | 0.00 | 0.00 | 0.00 | 40 | 1016.1 |
| 20260503235927 | 25 | 0 | 0.0 | 0.0 | 0.00 | 0.00 | 0.00 | 39 | 1016.2 |
| 20260503235427 | 25 | 0 | 0.0 | 0.0 | 0.00 | 0.00 | 0.00 | 39 | 1016.2 |
| 20260503234927 | 25 | 0 | 0.0 | 0.0 | 0.00 | 0.00 | 0.00 | 40 | 1016.3 |
| 20260503234428 | 25 | 0 | 0.0 | 0.0 | 0.00 | 0.00 | 0.00 | 40 | 1016.3 |
| 20260503233927 | 25 | 0 | 0.0 | 0.0 | 0.00 | 0.00 | 0.00 | 40 | 1016.3 |
| 20260503233427 | 25 | 0 | 0.0 | 0.0 | 0.00 | 0.00 | 0.00 | 41 | 1016.4 |
| 20260503232927 | 25 | 0 | 0.0 | 0.0 | 0.00 | 0.00 | 0.00 | 40 | 1016.4 |
| 20260503232427 | 25 | 0 | 0.0 | 0.0 | 0.00 | 0.00 | 0.00 | 40 | 1016.4 |
| 20260503231928 | 25 | 0 | 0.0 | 0.0 | 0.00 | 0.00 | 0.00 | 39 | 1016.5 |
| 20260503231428 | 25 | 0 | 0.0 | 0.0 | 0.00 | 0.00 | 0.00 | 39 | 1016.5 |
| 20260503230928 | 25 | 0 | 0.0 | 0.0 | 0.00 | 0.00 | 0.00 | 40 | 1016.5 |
| 20260503230428 | 25 | 0 | 0.0 | 14.5 | 0.00 | 0.00 | 0.00 | 39 | 1016.5 |
| 20260503225927 | 25 | 0 | 0.0 | 14.5 | 0.00 | 0.00 | 0.00 | 38 | 1016.5 |
| 20260503225427 | 25 | 0 | 0.0 | 8.0 | 0.00 | 0.00 | 0.00 | 40 | 1016.6 |
| 20260503224928 | 25 | 169 | 1.6 | 8.0 | 0.00 | 0.00 | 0.00 | 39 | 1016.8 |
| 20260503224428 | 25 | 164 | 1.6 | 8.0 | 0.00 | 0.00 | 0.00 | 37 | 1016.7 |
| 20260503223927 | 25 | 165 | 1.6 | 8.0 | 0.00 | 0.00 | 0.00 | 36 | 1016.8 |
| 20260503223428 | 25 | 166 | 1.6 | 11.3 | 0.00 | 0.00 | 0.00 | 36 | 1016.8 |
| 20260503222928 | 25 | 164 | 1.6 | 11.3 | 0.00 | 0.00 | 0.00 | 36 | 1016.7 |
| 20260503221928 | 26 | 169 | 3.2 | 16.1 | 0.00 | 0.00 | 0.00 | 35 | 1016.9 |
| 20260503221428 | 26 | 156 | 3.2 | 16.1 | 0.00 | 0.00 | 0.00 | 34 | 1016.8 |
| 20260503220927 | 26 | 152 | 4.8 | 14.5 | 0.00 | 0.00 | 0.00 | 34 | 1017.0 |
| 20260503220429 | 26 | 155 | 6.4 | 12.9 | 0.00 | 0.00 | 0.00 | 36 | 1017.0 |
| 20260503215927 | 26 | 157 | 4.8 | 16.1 | 0.00 | 0.00 | 0.00 | 34 | 1017.0 |
| 20260503215428 | 26 | 162 | 4.8 | 16.1 | 0.00 | 0.00 | 0.00 | 35 | 1017.0 |
| 20260503214428 | 26 | 153 | 8.0 | 16.1 | 0.00 | 0.00 | 0.00 | 34 | 1017.3 |
| 20260503212929 | 26 | 164 | 4.8 | 16.1 | 0.00 | 0.00 | 0.00 | 34 | 1017.5 |
| 20260503212428 | 26 | 164 | 4.8 | 17.7 | 0.00 | 0.00 | 0.00 | 36 | 1017.6 |
| 20260503211428 | 26 | 162 | 3.2 | 12.9 | 0.00 | 0.00 | 0.00 | 36 | 1017.9 |
| 20260503210928 | 26 | 162 | 4.8 | 14.5 | 0.00 | 0.00 | 0.00 | 35 | 1018.0 |
| 20260503210427 | 26 | 162 | 4.8 | 14.5 | 0.00 | 0.00 | 0.00 | 34 | 1018.0 |
| 20260503205928 | 26 | 166 | 1.6 | 9.7 | 0.00 | 0.00 | 0.00 | 35 | 1018.0 |
| 20260503203928 | 26 | 162 | 4.8 | 14.5 | 0.00 | 0.00 | 0.00 | 33 | 1018.3 |
| 20260503203429 | 26 | 173 | 3.2 | 12.9 | 0.00 | 0.00 | 0.00 | 34 | 1018.5 |
| 20260503202428 | 26 | 194 | 3.2 | 22.5 | 0.00 | 0.00 | 0.00 | 36 | 1018.6 |
| 20260503201928 | 26 | 196 | 3.2 | 11.3 | 0.00 | 0.00 | 0.00 | 35 | 1018.6 |
| 20260503201427 | 26 | 170 | 3.2 | 16.1 | 0.00 | 0.00 | 0.00 | 34 | 1018.9 |
| 20260503200427 | 26 | 167 | 3.2 | 12.9 | 0.00 | 0.00 | 0.00 | 34 | 1019.0 |
| 20260503195927 | 26 | 153 | 3.2 | 12.9 | 0.00 | 0.00 | 0.00 | 36 | 1018.9 |
| 20260503195428 | 26 | 163 | 3.2 | 12.9 | 0.00 | 0.00 | 0.00 | 33 | 1019.0 |
| 20260503194927 | 26 | 183 | 3.2 | 11.3 | 0.00 | 0.00 | 0.00 | 34 | 1019.2 |
| 20260503193929 | 26 | 161 | 4.8 | 11.3 | 0.00 | 0.00 | 0.00 | 32 | 1019.3 |
| 20260503192928 | 26 | 152 | 4.8 | 14.5 | 0.00 | 0.00 | 0.00 | 33 | 1019.4 |
| 20260503192427 | 26 | 152 | 6.4 | 14.5 | 0.00 | 0.00 | 0.00 | 33 | 1019.4 |
| 20260503191928 | 26 | 151 | 4.8 | 11.3 | 0.00 | 0.00 | 0.00 | 31 | 1019.4 |
| 20260503191428 | 26 | 149 | 3.2 | 11.3 | 0.00 | 0.00 | 0.00 | 35 | 1019.5 |
| 20260503190929 | 26 | 158 | 3.2 | 12.9 | 0.00 | 0.00 | 0.00 | 36 | 1019.7 |
| 20260503190429 | 26 | 150 | 3.2 | 12.9 | 0.00 | 0.00 | 0.00 | 35 | 1019.7 |
| 20260503185928 | 26 | 150 | 3.2 | 11.3 | 0.00 | 0.00 | 0.00 | 34 | 1019.8 |
| 20260503185428 | 26 | 154 | 4.8 | 12.9 | 0.00 | 0.00 | 0.00 | 36 | 1020.0 |
| 20260503184930 | 26 | 156 | 4.8 | 12.9 | 0.00 | 0.00 | 0.00 | 35 | 1020.0 |
| 20260503184428 | 26 | 167 | 3.2 | 14.5 | 0.00 | 0.00 | 0.00 | 38 | 1020.2 |
| 20260503183929 | 26 | 205 | 1.6 | 14.5 | 0.00 | 0.00 | 0.00 | 37 | 1020.1 |
| 20260503183428 | 25 | 202 | 1.6 | 12.9 | 0.00 | 0.00 | 0.00 | 38 | 1020.2 |
| 20260503182928 | 25 | 168 | 3.2 | 12.9 | 0.00 | 0.00 | 0.00 | 38 | 1020.4 |
| 20260503182428 | 26 | 149 | 4.8 | 12.9 | 0.00 | 0.00 | 0.00 | 38 | 1020.5 |
| 20260503181928 | 25 | 152 | 4.8 | 12.9 | 0.00 | 0.00 | 0.00 | 38 | 1020.6 |
| 20260503181429 | 25 | 157 | 4.8 | 11.3 | 0.00 | 0.00 | 0.00 | 41 | 1020.7 |
| 20260503180429 | 25 | 164 | 3.2 | 17.7 | 0.00 | 0.00 | 0.00 | 39 | 1020.8 |
| 20260503175928 | 25 | 196 | 3.2 | 8.0 | 0.00 | 0.00 | 0.00 | 41 | 1020.9 |
| 20260503174927 | 25 | 176 | 3.2 | 12.9 | 0.00 | 0.00 | 0.00 | 41 | 1021.0 |
| 20260503174428 | 25 | 212 | 1.6 | 12.9 | 0.00 | 0.00 | 0.00 | 41 | 1021.1 |
| 20260503173928 | 25 | 225 | 3.2 | 14.5 | 0.00 | 0.00 | 0.00 | 40 | 1021.2 |
| 20260503173428 | 25 | 212 | 3.2 | 14.5 | 0.00 | 0.00 | 0.00 | 41 | 1021.4 |
| 20260503172928 | 25 | 188 | 4.8 | 16.1 | 0.00 | 0.00 | 0.00 | 40 | 1021.4 |
| 20260503172427 | 25 | 191 | 4.8 | 16.1 | 0.00 | 0.00 | 0.00 | 42 | 1021.6 |
| 20260503171930 | 25 | 200 | 1.6 | 14.5 | 0.00 | 0.00 | 0.00 | 43 | 1021.6 |
| 20260503171427 | 25 | 223 | 3.2 | 12.9 | 0.00 | 0.00 | 0.00 | 41 | 1021.6 |
| 20260503170929 | 25 | 225 | 3.2 | 12.9 | 0.00 | 0.00 | 0.00 | 46 | 1021.7 |
| 20260503150428 | 21 | 220 | 1.6 | 11.3 | 0.00 | 0.00 | 0.00 | 56 | 1022.5 |
| 20260503130928 | 14 | 0 | 0.0 | 4.8 | 0.00 | 0.00 | 0.00 | 81 | 1021.7 |
| 20260503130428 | 13 | 250 | 1.6 | 4.8 | 0.00 | 0.00 | 0.00 | 81 | 1021.6 |